Retour au catalogue

COSMOS 1900 DEB

ActifLEO
NORAD 43500·DEBRIS·🇷🇺 Russia

Lancé Dec 12, 1987 depuis Baikonur Cosmodrome

Loading…

Prochains Passages (prochaines 24 heures)

TLE

FraisSource: Space-Track

Époque: Sep 13, 2026, 04:10 UTC

1 43500U 87101E   26256.17395924  .00000353  00000-0  93711-4 0  9996
2 43500  66.0841  93.9151 0029058  10.7680 100.3407 14.60757818681426

Suivez COSMOS 1900 DEB en temps réel avec AllMySat

Download on the App Store